Regional Weather Roundup
Issued by NWS

Home | Current Version | Previous Version | Graphics & Text | Print | Product List | Glossary On
Versions: 1 2 3 4 5 6 7 8 9 10 11 12 13 14 15 16 17 18 19 20 21 22 23 24 25 26 27 28 29 30 31 32 33 34 35 36 37 38 39 40 41 42 43 44 45 46 47 48 49 50
815
ASUS43 KLSX 291507
RWRMO

WEATHER SUMMARY FOR MISSOURI
NATIONAL WEATHER SERVICE SPRINGFIELD MO
1000 AM CDT WED MAR 29 2017

NOTE: "FAIR" INDICATES FEW OR NO CLOUDS BELOW 12,000 FEET WITH NO
       SIGNIFICANT WEATHER AND/OR OBSTRUCTIONS TO VISIBILITY.
       CURRENT SKY AND/OR WEATHER CONDITIONS ARE NOT AVAILABLE FOR
       CHILLICOTHE AND FARMINGTON.

MOZ001>031-035>038-043-044-053-054-291600-
...NORTHERN AND WESTERN MISSOURI...

CITY           SKY/WX    TMP DP  RH WIND       PRES   REMARKS
KANSAS CTY INT LGT RAIN  48  47  96 E23G35    29.80F FOG
KANSAS C DTWN  CLOUDY    50  48  93 E21G31    29.80F
LEE`S SUMMIT   CLOUDY    49  49 100 E22G29    29.80F
ST JOSEPH      LGT RAIN  48  48 100 E14G28    29.85F FOG
CHILLICOTHE      N/A     48  46  93 E12G22    29.94F
KIRKSVILLE     CLOUDY    43  43 100 E16       30.02F

$$
MOZ066>068-077>081-088>096-101>105-291600-
...SOUTHWEST MISSOURI...

CITY           SKY/WX    TMP DP  RH WIND       PRES   REMARKS
SPRINGFIELD    PTSUNNY   58  53  84 SE20G31   29.82R
JOPLIN         CLOUDY    58  56  93 E26G38    29.64F
BRANSON        CLOUDY    55  54  94 SE12G21   29.88R

$$
MOZ032>034-039>042-045>050-055>058-069>072-291600-
...CENTRAL MISSOURI...

CITY           SKY/WX    TMP DP  RH WIND       PRES   REMARKS
COLUMBIA       CLOUDY    50  48  93 E20G26    29.94F
JEFFERSON CITY CLOUDY    53  48  83 NE15G24   29.93F
ROLLA          CLOUDY    55  52  89 E21G26    29.91F
SEDALIA        CLOUDY    53  52  96 E16G28    29.88F
WHITEMAN AFB   CLOUDY    50  50 100 E13G23    29.83F
WARRENSBURG    CLOUDY    48  48 100 NE16G24   29.83F
OSAGE BEACH    CLOUDY    56  52  86 E12       29.89F

$$
MOZ051-052-059>065-291600-
...EAST CENTRAL MISSOURI...

CITY           SKY/WX    TMP DP  RH WIND       PRES   REMARKS
ST LOUIS INTL  LGT RAIN  52  47  83 E18       30.02F
SPIRIT OF STL  CLOUDY    52  48  86 E8        30.02F
ST CHARLES     LGT RAIN  51  49  92 E20       30.02F

$$
MOZ072>076-082>087-097>100-106>115-291600-
...SOUTH CENTRAL AND SOUTHEAST MISSOURI...

CITY           SKY/WX    TMP DP  RH WIND       PRES   REMARKS
CAPE GIRARDEAU LGT RAIN  57  52  83 E8        30.04R
FARMINGTON     CLOUDY    56  52  86 SE8       30.01F
POPLAR BLUFF   CLOUDY    59  54  83 E9        29.98S
WEST PLAINS    CLOUDY    58  53  84 E14G23    29.92F

$$



USA.gov is the U.S. government's official web portal to all federal, state and local government web resources and services.